星链-4137 (STARLINK-4137 )

导读

STARLINK-4137是美国SpaceX公司星链星座中的一颗低轨互联网通信卫星,于2022年7月7日发射,属于星链星座扩展组网任务。它运行在近地轨道,质量约数百公斤,设计为全球提供高速低延迟互联网接入,助力填补偏远地区网络覆盖缺口。作为星链项目数千颗组网卫星之一,它强化了星座的全球服务能力,同时也延续了星链项目在太空资源利用方面的争议。

Basic Information
目录编号:
53031
目录名称:
STARLINK-4137
国际标识:
2022-076AX
轨道中心:
EARTH
卫星名称:
星链-4137
卫星全名:
星链-4137 (STARLINK-4137 )
卫星状态:
在轨 (已飞行1441 天)
发射日期:
2022-07-07 UTC
国别 :
美国 (US)
星等 :
--
Orbit Information
数据来源 国际轨道数据 AOE轨道数据
星历时间 2026-06-17T02:47:06+0800
18小时前
查看轨道信息
2026-06-16T09:00:00+0800
1天前
查看轨道信息
半长轴 6917.919km 6917.935km
偏心率 0.0001222 0.0001698
轨道倾角 53.160° 53.159°
近地点辐角 81.427° 79.485°
升交点赤经 349.180° 352.509°
平近点角 278.686° 213.192°
近地点 538.936km 538.623km
远地点 540.628km 540.973km
周期 95.438分钟 95.439分钟
每日圈数 15.088275 15.088222
Detailed Information
固有亮度:
5
最大亮度:
2.5
卫星平台:
Starlink v1.5
覆盖范围:
全球
运营商:
太空探索技术公司
运营商所在国:
美国
制造商(研发单位):
太空探索技术公司
制造商所在国:
美国
使用方式:
暂无
Satellite Introduction
星链(Starlink)计划是由太空探索技术公司(SpaceX)提出的一个巨型低轨卫星互联网星座项目,计划在2019年至2024年间在太空搭建由约1.2万颗卫星组成的“星链”网络,其中1584颗将部署在地球上空550千米处的近地轨道,并从2020年开始工作。该卫星仍在工作。
2D Orbit Map
3D Orbit Map
Orbit Altitude Analysis Chart
Orbit Inclination Analysis Chart
Orbit Comprehensive Analysis Chart
View Comprehensive Chart